| time (UTC) | temp F | wind direction | speed MPH | gust MPH | rain 1hr in | rain 24hr in | rain mn in | humidity % | barometer mb |
| 20260902201535 | 61 | 24 | 0.0 | 3.0 | 0.01 | 0.02 | 0.02 | 86 | 1010.6 |
| 20260902200035 | 62 | 340 | 0.0 | 0.0 | 0.02 | 0.02 | 0.02 | 84 | 1010.6 |
| 20260902194535 | 63 | 258 | 0.0 | 0.0 | 0.02 | 0.02 | 0.01 | 84 | 1010.5 |
| 20260902193037 | 64 | 247 | 0.0 | 0.0 | 0.01 | 0.01 | 0.01 | 77 | 1010.5 |
| 20260902191536 | 65 | 241 | 0.0 | 2.0 | 0.01 | 0.01 | 0.00 | 72 | 1010.5 |
| 20260902190035 | 65 | 225 | 0.0 | 2.0 | 0.00 | 0.00 | 0.00 | 71 | 1010.3 |
| 20260902183108 | 66 | 247 | 0.0 | 1.0 | 0.00 | 0.00 | 0.00 | 68 | 1010.2 |
| 20260902181535 | 65 | 309 | 0.0 | 0.0 | 0.00 | 0.00 | 0.00 | 70 | 1010.2 |
| 20260902180145 | 66 | 357 | 0.0 | 2.0 | 0.00 | 0.00 | 0.00 | 69 | 1010.3 |
| 20260902174545 | 66 | 350 | 0.0 | 2.0 | 0.00 | 0.00 | 0.00 | 68 | 1010.3 |
| 20260902174536 | 66 | 358 | 0.0 | 3.0 | 0.00 | 0.00 | 0.00 | 69 | 1010.4 |
| 20260902170036 | 67 | 280 | 0.0 | 1.0 | 0.00 | 0.00 | 0.00 | 71 | 1010.7 |
| 20260902164609 | 63 | 172 | 0.0 | 1.0 | 0.00 | 0.00 | 0.00 | 73 | 1011.0 |
| 20260902163109 | 63 | 103 | 0.0 | 2.0 | 0.00 | 0.00 | 0.00 | 73 | 1011.2 |
| 20260902161536 | 63 | 257 | 0.0 | 2.0 | 0.00 | 0.00 | 0.00 | 75 | 1011.4 |
| 20260902160035 | 63 | 231 | 0.0 | 0.0 | 0.00 | 0.00 | 0.00 | 77 | 1011.6 |
| 20260902154534 | 63 | 225 | 0.0 | 0.0 | 0.00 | 0.00 | 0.00 | 83 | 1011.7 |
| 20260902153034 | 60 | 225 | 0.0 | 0.0 | 0.00 | 0.00 | 0.00 | 89 | 1011.9 |
| 20260902151533 | 57 | 225 | 0.0 | 0.0 | 0.00 | 0.00 | 0.00 | 92 | 1012.0 |
| 20260902150152 | 56 | 225 | 0.0 | 0.0 | 0.00 | 0.00 | 0.00 | 94 | 1012.2 |
| 20260902144535 | 54 | 225 | 0.0 | 2.0 | 0.00 | 0.00 | 0.00 | 96 | 1012.2 |
| 20260902143028 | 51 | 120 | 0.0 | 1.0 | 0.00 | 0.00 | 0.00 | 96 | 1012.3 |
| 20260902141531 | 50 | 112 | 0.0 | 0.0 | 0.00 | 0.00 | 0.00 | 96 | 1012.4 |
| 20260902140036 | 49 | 117 | 0.0 | 0.0 | 0.00 | 0.00 | 0.00 | 96 | 1012.3 |
| 20260902134612 | 48 | 202 | 0.0 | 0.0 | 0.00 | 0.00 | 0.00 | 95 | 1012.4 |
| 20260902133037 | 47 | 152 | 0.0 | 2.0 | 0.00 | 0.00 | 0.00 | 95 | 1012.5 |
| 20260902131609 | 47 | 196 | 0.0 | 2.0 | 0.00 | 0.00 | 0.00 | 95 | 1012.5 |
| 20260902130033 | 47 | 210 | 0.0 | 1.0 | 0.00 | 0.00 | 0.00 | 94 | 1012.5 |
| 20260902120035 | 49 | 160 | 0.0 | 2.0 | 0.00 | 0.00 | 0.00 | 93 | 1012.6 |
| 20260902114531 | 49 | 193 | 0.0 | 1.0 | 0.00 | 0.00 | 0.00 | 93 | 1012.7 |
| 20260902113035 | 49 | 216 | 0.0 | 1.0 | 0.00 | 0.00 | 0.00 | 92 | 1012.8 |
| 20260902111531 | 50 | 232 | 0.0 | 1.0 | 0.00 | 0.00 | 0.00 | 92 | 1012.7 |
| 20260902110108 | 51 | 243 | 0.0 | 1.0 | 0.00 | 0.00 | 0.00 | 91 | 1012.8 |
| 20260902104535 | 51 | 247 | 0.0 | 2.0 | 0.00 | 0.00 | 0.00 | 91 | 1012.9 |
| 20260902103035 | 51 | 209 | 0.0 | 3.0 | 0.00 | 0.00 | 0.00 | 91 | 1013.0 |
| 20260902101535 | 52 | 208 | 0.0 | 1.0 | 0.00 | 0.00 | 0.00 | 91 | 1013.0 |
| 20260902100109 | 52 | 208 | 0.0 | 0.0 | 0.00 | 0.00 | 0.00 | 91 | 1013.2 |
| 20260902094535 | 52 | 180 | 0.0 | 0.0 | 0.00 | 0.00 | 0.00 | 90 | 1013.2 |
| 20260902093034 | 52 | 247 | 0.0 | 0.0 | 0.00 | 0.00 | 0.00 | 89 | 1013.4 |
| 20260902091534 | 52 | 247 | 0.0 | 1.0 | 0.00 | 0.00 | 0.00 | 88 | 1013.5 |
| 20260902090036 | 53 | 225 | 0.0 | 2.0 | 0.00 | 0.00 | 0.00 | 86 | 1013.3 |
| 20260902083143 | 55 | 225 | 0.0 | 2.0 | 0.00 | 0.00 | 0.00 | 84 | 1013.4 |
| 20260902080110 | 57 | 305 | 0.0 | 2.0 | 0.00 | 0.00 | 0.00 | 82 | 1013.5 |
| 20260902074534 | 58 | 337 | 0.0 | 1.0 | 0.00 | 0.00 | 0.00 | 81 | 1013.6 |
| 20260902073035 | 58 | 349 | 0.0 | 4.0 | 0.00 | 0.00 | 0.00 | 79 | 1013.6 |
| 20260902071536 | 59 | 311 | 0.0 | 3.0 | 0.00 | 0.00 | 0.00 | 78 | 1013.7 |
| 20260902063110 | 60 | 333 | 0.0 | 2.0 | 0.00 | 0.00 | 0.00 | 76 | 1014.2 |
| 20260902061537 | 61 | 270 | 0.0 | 3.0 | 0.00 | 0.00 | 0.00 | 76 | 1014.3 |
| 20260902060036 | 61 | 343 | 0.0 | 2.0 | 0.00 | 0.00 | 0.00 | 75 | 1014.3 |
| 20260902054534 | 61 | 351 | 0.0 | 3.0 | 0.00 | 0.00 | 0.00 | 76 | 1014.2 |
| 20260902053030 | 60 | 360 | 0.0 | 3.0 | 0.00 | 0.00 | 0.00 | 76 | 1014.2 |
| 20260902051530 | 60 | 323 | 0.0 | 1.0 | 0.00 | 0.00 | 0.00 | 75 | 1014.0 |
| 20260902050034 | 60 | 282 | 0.0 | 5.0 | 0.00 | 0.00 | 0.00 | 75 | 1013.8 |
| 20260902043035 | 61 | 270 | 0.0 | 0.0 | 0.00 | 0.00 | 0.00 | 72 | 1013.6 |
| 20260902041536 | 61 | 268 | 0.0 | 4.0 | 0.00 | 0.00 | 0.00 | 71 | 1013.4 |
| 20260902040035 | 62 | 270 | 0.0 | 0.0 | 0.00 | 0.00 | 0.00 | 70 | 1013.3 |
| 20260902034535 | 62 | 269 | 0.0 | 2.0 | 0.00 | 0.00 | 0.00 | 69 | 1013.0 |
| 20260902033031 | 62 | 269 | 0.0 | 7.0 | 0.00 | 0.00 | 0.00 | 68 | 1013.0 |
| 20260902031536 | 62 | 259 | 0.0 | 7.0 | 0.00 | 0.00 | 0.00 | 69 | 1013.0 |
| 20260902030034 | 61 | 282 | 0.0 | 3.0 | 0.00 | 0.00 | 0.00 | 71 | 1013.1 |
| 20260902024536 | 61 | 247 | 0.0 | 1.0 | 0.00 | 0.00 | 0.00 | 71 | 1013.1 |
| 20260902014610 | 66 | 321 | 0.0 | 3.0 | 0.00 | 0.00 | 0.00 | 65 | 1012.6 |
| 20260902013037 | 65 | 275 | 0.0 | 2.0 | 0.00 | 0.00 | 0.00 | 65 | 1012.6 |
| 20260902011534 | 66 | 292 | 0.0 | 4.0 | 0.00 | 0.00 | 0.00 | 64 | 1012.4 |
| 20260902010033 | 67 | 294 | 0.0 | 4.0 | 0.00 | 0.00 | 0.00 | 62 | 1012.3 |
| 20260902004610 | 68 | 297 | 0.0 | 5.0 | 0.00 | 0.00 | 0.00 | 63 | 1012.1 |
| 20260902003109 | 67 | 279 | 0.0 | 7.0 | 0.00 | 0.00 | 0.00 | 62 | 1012.0 |
| 20260902001609 | 69 | 308 | 1.0 | 10.0 | 0.00 | 0.00 | 0.00 | 62 | 1011.9 |
| 20260901234610 | 68 | 306 | 0.0 | 5.0 | 0.00 | 0.00 | 0.00 | 62 | 1012.0 |
| 20260901233035 | 69 | 334 | 0.0 | 9.0 | 0.00 | 0.00 | 0.00 | 61 | 1011.9 |
| 20260901231532 | 70 | 305 | 1.0 | 8.0 | 0.00 | 0.00 | 0.00 | 61 | 1011.9 |
| 20260901230036 | 70 | 296 | 0.0 | 7.0 | 0.00 | 0.00 | 0.00 | 61 | 1011.8 |
| 20260901224533 | 69 | 308 | 0.0 | 8.0 | 0.00 | 0.00 | 0.00 | 62 | 1011.8 |
| 20260901223030 | 69 | 329 | 1.0 | 5.0 | 0.00 | 0.00 | 0.00 | 61 | 1011.7 |
| 20260901221610 | 70 | 322 | 1.0 | 8.0 | 0.00 | 0.00 | 0.00 | 60 | 1011.4 |
| 20260901214533 | 71 | 339 | 1.0 | 13.0 | 0.00 | 0.00 | 0.00 | 60 | 1011.1 |
| 20260901211608 | 70 | 323 | 1.0 | 7.0 | 0.00 | 0.00 | 0.00 | 61 | 1011.4 |
| 20260901210035 | 70 | 322 | 1.0 | 6.0 | 0.00 | 0.00 | 0.00 | 59 | 1011.6 |
| 20260901204608 | 72 | 320 | 1.0 | 7.0 | 0.00 | 0.00 | 0.00 | 56 | 1011.7 |
| 20260901203151 | 74 | 334 | 1.0 | 7.0 | 0.00 | 0.00 | 0.00 | 57 | 1011.7 |